Montreal, Quebec

3:12 AM EST on February 20, 2018 (GMT -0500)
Montreal-Pierre Elliott Trudeau Int'l Airport

Weather History for CYUL - November, 2011

Change the Weather History Date:

Monday, November 14, 2011

  Actual Average Record
Temperature  
Mean Temperature 57 °F -  
Max Temperature 65 °F 34 °F 64 °F (2011)
Min Temperature 49 °F 21 °F 14 °F (1996)
Degree Days  
Heating Degree Days 8    
Growing Degree Days 7 (Base 50)    
Moisture  
Dew Point 46 °F    
Average Humidity 67    
Maximum Humidity 94    
Minimum Humidity 45    
Precipitation  
Precipitation 0.20 in 0.12 in - ()
Sea Level Pressure  
Sea Level Pressure 29.61 in    
Wind  
Wind Speed 11 mph ()    
Max Wind Speed 26 mph    
Max Gust Speed 38 mph    
Visibility 13.1 miles    
Events Rain    
Averages and records for this station are not official NWS values.
T = Trace of Precipitation, MM = Missing Value Source: Averaged Metar Reports

Daily Weather History Graph

Daily Weather History Graph

Search for Another Location

Airport or City:

Trip Planner

Search our weather history database for the weather conditions in past years. The results will help you decide how hot, cold, wet, or windy it might be!

Date:

Astronomy

Nov. 14, 2011 Rise Set
Actual Time 6:52 AM EST 4:26 PM EST
Civil Twilight 6:20 AM EST 4:58 PM EST
Nautical Twilight 5:44 AM EST 5:33 PM EST
Astronomical Twilight 5:09 AM EST 6:08 PM EST
Moon 7:26 PM EST (11/14) 10:13 AM EST (11/14)
Length of Visible Light 10h 37m
Length of Day
9h 33m
Waning Gibbous, 87% of the Moon is Illuminated
Nov 14
Waning Gibbous
Nov 18
Last Quarter
Nov 25
New
Dec 2
First Quarter
Dec 10
Full

Hourly Weather History & Observations

Time (EST) Temp. Dew Point Humidity Pressure Visibility Wind Dir Wind Speed Gust Speed Precip Events Conditions
12:00 AM 51.8 °F 39.2 °F 62% 29.68 in 15.0 mi SSE 10.4 mph - N/A Rain Light Rain
1:00 AM 51 °F 40 °F 56% 29.66 in 15 mi SSE 11.5 mph - - Rain Light Rain
1:00 AM 51.8 °F 41.0 °F 67% 29.66 in 15.0 mi SSE 11.5 mph - N/A Rain Light Rain
2:00 AM 50.0 °F 41.0 °F 71% 29.66 in 12.0 mi SSE 11.5 mph - N/A Rain Light Rain
3:00 AM 50.0 °F 41.0 °F 71% 29.63 in 15.0 mi SSE 13.8 mph - N/A   Overcast
4:00 AM 50.0 °F 41.0 °F 71% 29.61 in 15.0 mi SSE 13.8 mph 19.6 mph N/A   Overcast
5:00 AM 50.0 °F 41.0 °F 71% 29.60 in 15.0 mi SSE 13.8 mph - N/A   Overcast
6:00 AM 51.8 °F 41.0 °F 67% 29.58 in 15.0 mi SSE 12.7 mph - N/A   Overcast
6:35 AM 51.8 °F - N/A% - 15.0 mi South 6.9 mph - N/A Rain Light Rain Showers
7:00 AM 51 °F 44 °F 68% 29.59 in 15 mi SSE 11.5 mph - - Rain Light Rain Showers
7:00 AM 50.0 °F 42.8 °F 76% 29.59 in 15.0 mi SSE 10.4 mph - N/A Rain Light Rain Showers
8:00 AM 55.4 °F 46.4 °F 72% 29.59 in 15.0 mi SSW 12.7 mph - N/A Rain Light Rain
9:00 AM 57.2 °F 50.0 °F 77% 29.59 in 30.0 mi SSW 13.8 mph - N/A   Mostly Cloudy
10:00 AM 60.8 °F 48.2 °F 63% 29.61 in 30.0 mi WSW 18.4 mph - N/A   Mostly Cloudy
11:00 AM 62.6 °F 48.2 °F 59% 29.62 in 30.0 mi WSW 20.7 mph 29.9 mph N/A   Scattered Clouds
12:00 PM 64.4 °F 48.2 °F 56% 29.61 in 30.0 mi SW 16.1 mph 27.6 mph N/A   Partly Cloudy
1:00 PM 65 °F 49 °F 45% 29.61 in 28 mi WSW 24.2 mph - -   Partly Cloudy
1:00 PM 64.4 °F 48.2 °F 56% 29.61 in 30.0 mi WSW 26.5 mph 38.0 mph N/A   Mostly Cloudy
2:00 PM 64.4 °F 48.2 °F 56% 29.60 in 30.0 mi WSW 24.2 mph 29.9 mph N/A   Mostly Cloudy
3:00 PM 62.6 °F 48.2 °F 59% 29.60 in 30.0 mi WSW 18.4 mph 24.2 mph N/A   Overcast
4:00 PM 62.6 °F 48.2 °F 59% 29.60 in 15.0 mi WSW 12.7 mph - N/A   Overcast
5:00 PM 60.8 °F 48.2 °F 63% 29.61 in 15.0 mi SSW 8.1 mph - N/A   Mostly Cloudy
6:00 PM 60.8 °F 48.2 °F 63% 29.59 in 15.0 mi South 8.1 mph - N/A   Overcast
7:00 PM 57 °F 46 °F 56% 29.59 in 15 mi SSE 9.2 mph - -   Overcast
7:00 PM 57.2 °F 46.4 °F 67% 29.59 in 15.0 mi South 9.2 mph - N/A   Overcast
7:54 PM 55.4 °F - N/A% - 15.0 mi South 6.9 mph - N/A Rain Light Rain Showers
8:00 PM 55.4 °F 44.6 °F 67% 29.58 in 15.0 mi South 5.8 mph - N/A Rain Light Rain Showers
9:00 PM 53.6 °F 48.2 °F 82% 29.60 in 15.0 mi SSW 5.8 mph - N/A Rain Light Rain Showers
10:00 PM 51.8 °F 48.2 °F 88% 29.56 in 10.0 mi SSE 3.5 mph - N/A Rain Light Rain
10:24 PM 51.8 °F - N/A% - 4.0 mi SE 3.5 mph - N/A   Light Drizzle
10:30 PM 51.8 °F - N/A% - 3.0 mi ESE 4.6 mph - N/A Rain Light Rain
10:50 PM 51.8 °F - N/A% - 6.0 mi ESE 5.8 mph - N/A   Overcast
11:00 PM 51.8 °F 50.0 °F 94% 29.55 in 10.0 mi ESE 2.3 mph - N/A   Overcast
11:28 PM 51.8 °F - N/A% - 10.0 mi SE 3.5 mph - N/A   Light Drizzle